Weather History for Las Americas, Dominican Republic

Change the Weather History Date:

Thursday, February 7, 2013

  Actual Average Record
Temperature  
Mean Temperature 78 °F -  
Max Temperature 87 °F 85 °F 87 °F (2013)
Min Temperature 68 °F 66 °F 64 °F (1999)
Cooling Degree Days 12    
Growing Degree Days 28 (Base 50)    
Moisture  
Dew Point 70 °F    
Average Humidity 83    
Maximum Humidity 100    
Minimum Humidity 52    
Precipitation  
Precipitation 0.00 in 0.05 in - ()
Sea Level Pressure  
Sea Level Pressure 29.98 in    
Wind  
Wind Speed 5 mph ()    
Max Wind Speed 12 mph    
Max Gust Speed -    
Visibility 5.8 miles    
Events Rain    
Averages and records for this station are not official NWS values.
T = Trace of Precipitation, MM = Missing Value Source: Averaged Metar Reports

Daily Weather History Graph

Daily Weather History Graph

Search for Another Location

Airport:

Trip Planner

Search our weather history database for the weather conditions in past years. The results will help you decide how hot, cold, wet, or windy it might be!

Date:

Astronomy

Feb. 07, 2013 Rise Set
Actual Time 7:09 AM AST 6:35 PM AST
Civil Twilight 6:47 AM AST 6:58 PM AST
Nautical Twilight 6:21 AM AST 7:24 PM AST
Astronomical Twilight 5:55 AM AST 7:50 PM AST
Moon 4:33 AM AST (2/7) 4:07 PM AST (2/7)
Length of Visible Light 12h 11m
Length of Day
11h 26m
Waning Crescent, 9% of the Moon is Illuminated
Feb 7
Waning Crescent
Feb 10
New
Feb 17
First Quarter
Feb 25
Full
Mar 4
Last Quarter

Hourly Weather History & Observations

Time (AST) Temp. Heat Index Dew Point Humidity Pressure Visibility Wind Dir Wind Speed Gust Speed Precip Events Conditions
12:00 AM 69.8 °F - 69.8 °F 100% 30.01 in 6.2 mi NE 4.6 mph - N/A   Scattered Clouds
1:00 AM 68.0 °F - 66.2 °F 94% 29.98 in 6.2 mi Calm Calm - N/A   Partly Cloudy
2:00 AM 68.0 °F - 66.2 °F 94% 29.98 in 6.2 mi North 4.6 mph - N/A   Partly Cloudy
3:00 AM 69.8 °F - 66.2 °F 88% 29.98 in 6.2 mi NNE 4.6 mph - N/A   Partly Cloudy
4:00 AM 69.8 °F - 66.2 °F 88% 29.98 in 6.2 mi NNE 4.6 mph - N/A   Partly Cloudy
5:00 AM 68.0 °F - 66.2 °F 94% 29.98 in 6.2 mi North 4.6 mph - N/A   Partly Cloudy
6:00 AM 68.0 °F - 66.2 °F 94% 29.98 in 6.2 mi North 4.6 mph - N/A   Partly Cloudy
7:00 AM 68.0 °F - 66.2 °F 94% 29.98 in 6.2 mi NE 6.9 mph - N/A   Partly Cloudy
8:00 AM 69.8 °F - 66.2 °F 88% 30.01 in 6.2 mi Calm Calm - N/A   Partly Cloudy
9:00 AM 73.4 °F - 68.0 °F 83% 30.01 in 6.2 mi North 6.9 mph - N/A   Scattered Clouds
10:00 AM 75.2 °F - 69.8 °F 83% 30.01 in 6.2 mi NE 4.6 mph - N/A   Scattered Clouds
11:00 AM 81 °F - 70 °F 62% 30.02 in 9 mi East 8.9 mph - -   Haze
11:00 AM 80.6 °F 83.9 °F 69.8 °F 70% 30.01 in 6.2 mi East 8.1 mph - N/A   Partly Cloudy
12:00 PM 84.2 °F 88.4 °F 69.8 °F 62% 30.01 in 6.2 mi East 4.6 mph - N/A   Scattered Clouds
1:00 PM 86.0 °F 90.4 °F 69.8 °F 58% 29.98 in 6.2 mi SSE 8.1 mph - N/A   Scattered Clouds
2:00 PM 86 °F - 71 °F 52% 29.95 in 9 mi South 8.9 mph - -   Haze
2:00 PM 86.0 °F 91.8 °F 71.6 °F 62% 29.95 in 6.2 mi South 8.1 mph - N/A   Scattered Clouds
3:00 PM 86.0 °F 91.8 °F 71.6 °F 62% 29.92 in 6.2 mi South 11.5 mph - N/A   Scattered Clouds
4:00 PM 86.0 °F 91.8 °F 71.6 °F 62% 29.92 in 6.2 mi SSE 6.9 mph - N/A   Scattered Clouds
5:00 PM 82.4 °F 87.2 °F 71.6 °F 70% 29.92 in 5.0 mi SSE 6.9 mph - N/A   Scattered Clouds
6:00 PM 78.8 °F - 71.6 °F 78% 29.95 in 4.3 mi East 5.8 mph - N/A Rain Rain
6:05 PM 77.0 °F - 71.6 °F 83% 29.95 in 4.3 mi NE 6.9 mph - N/A Rain Light Rain
6:30 PM - - - N/A% 29.95 in 1.2 mi NE 9.2 mph - N/A Rain Heavy Rain
7:00 PM 73.4 °F - 71.6 °F 94% 30.01 in 4.3 mi NNE 9.2 mph - N/A Rain Light Rain
8:00 PM 73 °F - 72 °F 95% 29.98 in 5 mi 4.5 mph - - Rain Light Rain
8:00 PM 73.4 °F - 71.6 °F 94% 29.98 in 5.0 mi Variable 3.5 mph - N/A Rain Light Rain
8:22 PM 71.6 °F - 71.6 °F 100% 29.98 in 3.7 mi NNE 8.1 mph - N/A Rain Rain
9:00 PM 71.6 °F - 71.6 °F 100% 29.98 in 5.0 mi Variable 3.5 mph - N/A Rain Light Rain
10:00 PM 71.6 °F - 69.8 °F 94% 30.01 in 6.2 mi Variable 3.5 mph - N/A   Mostly Cloudy
11:00 PM 73 °F - 72 °F 96% 30.01 in 7 mi 4.5 mph - -   Haze
11:00 PM 73.4 °F - 71.6 °F 94% 30.01 in 6.2 mi Variable 3.5 mph - N/A   Mostly Cloudy